time_stamp(utc),avg(mph),gust(mph),direction(deg),12m_air_temp(f),sonic_u(cm/s),sonic_v(cm/s),sonic_w(cm/s),pressure,2m_air_temp(f),pyranometer(W/m^2)
"2017-03-22 00:00:21+00",10.4,11.4,,53.1,-450,-51,10,1011.35,47.6,0
"2017-03-22 00:05:21+00",12.1,12.1,,53.1,-518,-55,7,1011.45,48.2,0
"2017-03-22 00:10:21+00",12.2,13.2,,52.9,-523,-58,8,1011.58,48.4,0
"2017-03-22 00:15:21+00",11.7,12.7,,53.1,-518,-27,18,1011.5,49,0
"2017-03-22 00:20:21+00",11.0,12.0,,53.2,-479,-31,14,1011.58,49.4,0
"2017-03-22 00:25:21+00",11.0,12.0,,52.8,-482,-19,14,1011.64,49.4,0
"2017-03-22 00:30:21+00",11.7,12.7,,52.8,-509,-24,15,1011.76,49.4,0
"2017-03-22 00:35:21+00",11.2,12.2,,52.8,-489,-10,14,1011.79,49.5,0
"2017-03-22 00:40:21+00",11.0,12.0,,52.5,-482,-26,10,1011.79,49.5,0
"2017-03-22 00:45:21+00",11.5,12.5,,52.1,-496,-56,16,1011.8,49.5,0
"2017-03-22 00:50:21+00",10.9,11.9,,51.7,-467,-53,5,1011.8,49,0
"2017-03-22 00:55:21+00",12.0,13.0,,51.5,-517,-67,4,1011.87,48.2,0
"2017-03-22 01:00:21+00",12.3,13.3,,51.5,-530,-72,5,1011.97,47.5,0
"2017-03-22 01:05:21+00",12.7,12.7,,51.5,-543,-89,7,1012.01,47,0
"2017-03-22 01:10:21+00",12.2,13.2,,51.3,-519,-75,5,1012.02,46.6,0
"2017-03-22 01:15:21+00",12.1,13.1,,51.2,-520,-73,1,1012.06,46.4,0
"2017-03-22 01:20:21+00",12.4,13.4,,50.9,-533,-65,10,1012.09,46.2,0
"2017-03-22 01:25:21+00",11.0,12.0,,51,-476,-59,8,1011.93,46.2,0
"2017-03-22 01:30:21+00",10.8,11.8,,51,-464,-52,13,1011.94,46.5,0
"2017-03-22 01:35:21+00",11.2,11.2,,51,-484,-61,7,1011.9,46.5,0
"2017-03-22 01:40:21+00",11.2,11.2,,50.9,-476,-82,7,1011.88,46,0
"2017-03-22 01:45:21+00",10.7,10.7,,51,-436,-102,10,1011.87,45.4,0
"2017-03-22 01:50:21+00",11.2,12.2,,50.7,-460,-144,17,1012.03,44.8,0
"2017-03-22 01:55:21+00",11.1,12.1,,50.2,-469,-87,11,1012.08,44.3,0
"2017-03-22 02:00:21+00",11.3,11.3,,49.2,-474,-87,5,1011.97,44.1,0
"2017-03-22 02:05:21+00",9.6,10.6,,49.1,-422,-8,11,1011.9,44,0
"2017-03-22 02:10:21+00",9.2,10.2,,49.3,-402,-5,14,1011.92,44.1,0
"2017-03-22 02:15:21+00",8.9,8.9,,49.4,-380,-42,9,1011.86,44,0
"2017-03-22 02:20:21+00",8.8,8.8,,49.3,-371,-62,5,1011.91,43.6,0
"2017-03-22 02:25:21+00",7.7,8.7,,48.6,-347,-138,9,1011.92,43.2,0
"2017-03-22 02:30:21+00",9.3,10.3,,48.4,-379,-121,5,1011.93,43,0
"2017-03-22 02:35:21+00",9.4,9.4,,48.2,-411,-151,8,1012,42.8,0
"2017-03-22 02:40:21+00",9.2,10.2,,48.3,-398,-147,13,1011.94,43,0
"2017-03-22 02:45:21+00",8.4,8.4,,47.8,-352,-178,1,1011.89,43,0
"2017-03-22 02:50:21+00",8.6,9.6,,47.4,-375,-142,7,1011.91,43.1,0
"2017-03-22 02:55:21+00",9.3,10.3,,46.9,-368,-202,4,1011.95,43,0
"2017-03-22 03:00:21+00",9.5,9.5,,46.8,-354,-214,9,1011.82,43.2,0
"2017-03-22 03:05:21+00",10.0,11.0,,47.1,-373,-235,11,1011.77,43.3,0
"2017-03-22 03:10:21+00",10.1,11.1,,47.1,-376,-233,8,1011.73,43.4,0
"2017-03-22 03:15:21+00",9.4,10.4,,46.8,-352,-212,7,1011.62,43.6,0
"2017-03-22 03:20:21+00",10.1,11.1,,46.6,-351,-261,11,1011.66,43.8,0
"2017-03-22 03:25:21+00",10.5,11.5,,46.5,-342,-290,4,1011.49,44.1,0
"2017-03-22 03:30:21+00",10.3,11.3,,46.1,-328,-322,-3,1011.47,44.2,0
"2017-03-22 03:35:21+00",10.0,11.0,,45.8,-321,-303,-2,1011.55,44.2,0
"2017-03-22 03:40:21+00",9.7,10.7,,45.2,-265,-347,-2,1011.6,44,0
"2017-03-22 03:45:21+00",9.2,10.2,,44.9,-281,-302,-1,1011.61,43.9,0
"2017-03-22 03:50:21+00",9.3,10.3,,45,-271,-315,-3,1011.48,44.1,0
"2017-03-22 03:55:21+00",10.1,11.1,,45.2,-307,-334,-3,1011.49,44.2,0
"2017-03-22 04:00:21+00",10.6,11.6,,45.2,-331,-335,-3,1011.53,44.4,0
"2017-03-22 04:05:21+00",10.7,11.7,,45.5,-339,-331,-4,1011.48,44.5,0
"2017-03-22 04:10:21+00",10.4,12.4,,45.4,-334,-307,1,1011.53,44.6,0
"2017-03-22 04:15:21+00",9.8,10.8,,45.3,-318,-283,-4,1011.48,44.6,0
"2017-03-22 04:20:21+00",10.2,11.2,,45.5,-329,-297,2,1011.43,44.6,0
"2017-03-22 04:25:21+00",9.6,10.6,,45.4,-286,-330,3,1011.33,44.7,0
"2017-03-22 04:30:21+00",10.2,11.2,,45.5,-330,-299,2,1011.16,44.7,0
"2017-03-22 04:35:21+00",10.3,11.3,,45.7,-363,-262,6,1011.01,44.8,0
"2017-03-22 04:40:21+00",10.8,11.8,,45.7,-343,-328,-1,1011.05,44.8,0
"2017-03-22 04:45:21+00",10.7,11.7,,45.9,-344,-315,4,1011.03,44.9,0
"2017-03-22 04:50:21+00",10.9,11.9,,46.2,-356,-309,0,1010.99,45,0
"2017-03-22 04:55:21+00",10.6,12.6,,46.2,-341,-308,5,1010.98,45.1,0
"2017-03-22 05:00:21+00",11.2,13.2,,46.1,-365,-327,5,1010.92,45.1,0
"2017-03-22 05:05:21+00",11.9,12.9,,46.1,-410,-313,2,1010.87,45.1,0
"2017-03-22 05:10:21+00",11.9,12.9,,46.2,-414,-305,11,1010.91,45.1,0
"2017-03-22 05:15:21+00",12.1,13.1,,46.2,-451,-295,12,1010.92,45.1,0
"2017-03-22 05:20:21+00",11.9,12.9,,46.3,-476,-267,7,1010.9,45,0
"2017-03-22 05:25:21+00",12.4,14.4,,46.3,-495,-279,6,1010.94,44.9,0
"2017-03-22 05:30:21+00",12.1,13.1,,46.2,-491,-264,11,1010.86,44.7,0
"2017-03-22 05:35:21+00",12.1,13.1,,46.5,-529,-251,12,1011.02,44.6,0
"2017-03-22 05:40:21+00",11.1,12.1,,46.7,-468,-158,11,1010.89,44.7,0
"2017-03-22 05:45:21+00",12.1,13.1,,46.4,-511,-172,13,1011.01,44.6,0
"2017-03-22 05:50:21+00",10.0,11.0,,46,-423,-66,6,1011.19,44.5,0
"2017-03-22 05:55:21+00",7.1,8.1,,45.5,-312,11,18,1011.11,44.3,0
"2017-03-22 06:00:21+00",10.1,11.1,,46.1,-444,-12,1,1011.01,44.2,0
"2017-03-22 06:05:21+00",12.1,14.1,,47.3,-525,-55,18,1011.11,45,0
"2017-03-22 06:10:21+00",12.2,13.2,,47.9,-519,-72,13,1010.98,45.9,0
"2017-03-22 06:15:21+00",12.6,14.6,,48,-533,-78,24,1011.11,46.3,0
"2017-03-22 06:20:21+00",13.2,15.2,,48.3,-576,-41,17,1011.21,46.7,0
"2017-03-22 06:25:21+00",13.3,15.3,,48.5,-588,-13,14,1011.18,47,0
"2017-03-22 06:30:21+00",13.1,15.1,,48.3,-577,7,23,1011.04,47.1,0
"2017-03-22 06:35:21+00",12.5,13.5,,48.1,-551,59,30,1010.99,46.9,0
"2017-03-22 06:40:21+00",13.3,15.3,,48.2,-587,140,35,1011.13,46.8,0
"2017-03-22 06:45:21+00",12.4,14.4,,48,-526,161,33,1011.06,46.7,0
"2017-03-22 06:50:21+00",13.0,15.0,,47.7,-520,279,17,1011.14,46.5,0
"2017-03-22 06:55:21+00",11.7,13.7,,47.7,-448,275,23,1011.09,46.4,0
"2017-03-22 07:00:21+00",11.7,12.7,,47.6,-450,296,31,1011.17,46.5,0
"2017-03-22 07:05:21+00",11.6,12.6,,46.8,-433,303,26,1011.25,46.1,0
"2017-03-22 07:10:21+00",12.3,13.3,,46.4,-470,270,23,1011.4,45.7,0
"2017-03-22 07:15:21+00",12.2,13.2,,46.4,-450,310,26,1011.23,45.5,0
"2017-03-22 07:20:21+00",12.0,13.0,,46.5,-439,302,30,1011.17,45.4,0
"2017-03-22 07:25:21+00",11.1,12.1,,46.5,-408,273,28,1011.21,45.4,0
"2017-03-22 07:30:21+00",10.6,11.6,,46.4,-384,270,27,1011.21,45.3,0
"2017-03-22 07:35:21+00",10.6,11.6,,46.3,-386,270,26,1011.13,45.1,0
"2017-03-22 07:40:21+00",10.3,11.3,,46.3,-378,258,23,1011.26,45,0
"2017-03-22 07:45:21+00",9.5,10.5,,46.1,-363,230,22,1011.18,44.8,0
"2017-03-22 07:50:21+00",9.0,9.0,,46.4,-304,253,19,1011.07,44.6,0
"2017-03-22 07:55:21+00",7.2,8.2,,46.4,-230,219,23,1011.14,44.6,0
"2017-03-22 08:00:21+00",7.1,8.1,,46.8,-198,241,21,1010.96,44.6,0
"2017-03-22 08:05:21+00",6.9,7.9,,47,-239,189,26,1011,44.7,0
"2017-03-22 08:10:21+00",6.9,7.9,,47,-259,156,19,1010.97,44.4,0
"2017-03-22 08:15:21+00",7.2,8.2,,46.6,-294,135,22,1011.15,44,0
"2017-03-22 08:20:21+00",7.1,7.1,,46,-304,92,20,1011.27,43.6,0
"2017-03-22 08:25:21+00",7.9,8.9,,46.2,-335,120,23,1011.37,43.4,0
"2017-03-22 08:30:21+00",9.1,10.1,,45.7,-396,78,21,1011.41,43.4,0
"2017-03-22 08:35:21+00",9.5,10.5,,45.4,-396,143,24,1011.38,43.5,0
"2017-03-22 08:40:21+00",9.5,10.5,,45.4,-363,229,26,1011.41,43.6,0
"2017-03-22 08:45:21+00",9.0,9.0,,44.8,-363,173,23,1011.38,43.6,0
"2017-03-22 08:50:21+00",8.2,9.2,,45,-283,228,20,1011.47,43.5,0
"2017-03-22 08:55:21+00",8.1,9.1,,45,-301,197,21,1011.54,43.4,0
"2017-03-22 09:00:21+00",7.0,7.0,,44.9,-245,180,16,1011.64,43.3,0
"2017-03-22 09:05:21+00",6.9,7.9,,45.1,-265,152,16,1011.51,43,0
"2017-03-22 09:10:21+00",7.1,7.1,,45.6,-278,144,20,1011.68,42.6,0
"2017-03-22 09:15:21+00",6.7,7.7,,45,-292,43,15,1011.85,42.2,0
"2017-03-22 09:20:21+00",7.1,7.1,,44.4,-301,91,15,1012.05,41.9,0
"2017-03-22 09:25:21+00",8.6,8.6,,44.1,-340,172,21,1012.13,41.6,0
"2017-03-22 09:30:21+00",9.0,10.0,,44.7,-321,241,22,1012.25,41.6,0
"2017-03-22 09:35:21+00",9.1,11.1,,45.3,-259,290,20,1012.17,41.6,0
"2017-03-22 09:40:21+00",9.7,10.7,,45.7,-246,343,30,1012.24,42.3,0
"2017-03-22 09:45:21+00",8.7,9.7,,45.5,-299,246,29,1012.24,43,0
"2017-03-22 09:50:21+00",9.8,10.8,,45.6,-307,312,33,1012.25,42.9,0
"2017-03-22 09:55:21+00",10.0,12.0,,45,-271,351,37,1012.38,43,0
"2017-03-22 10:00:21+00",13.6,15.6,,45.3,-305,514,28,1012.62,43,0
"2017-03-22 10:05:21+00",13.7,15.7,,45.3,-316,509,28,1012.75,42.9,0
"2017-03-22 10:10:21+00",12.5,13.5,,44.9,-287,472,31,1012.89,42.9,0
"2017-03-22 10:15:21+00",13.5,15.5,,44.8,-264,534,42,1012.98,43,0
"2017-03-22 10:20:21+00",16.5,20.5,,44.5,-278,666,29,1013.1,42.9,0
"2017-03-22 10:25:21+00",14.7,16.7,,44.1,-206,616,25,1013.19,42.8,0
"2017-03-22 10:30:21+00",16.8,19.8,,44,-259,699,39,1013.33,42.6,0
"2017-03-22 10:35:21+00",14.5,17.5,,43.9,-188,604,30,1013.41,42.5,0
"2017-03-22 10:40:21+00",12.0,14.0,,43.3,-271,452,33,1013.57,42.1,0
"2017-03-22 10:45:21+00",15.1,17.1,,43.3,-293,596,40,1013.6,41.8,0
"2017-03-22 10:50:21+00",15.4,17.4,,43.2,-318,604,43,1013.73,41.6,0
"2017-03-22 10:55:21+00",13.8,15.8,,42.9,-314,527,40,1013.76,41.5,0
"2017-03-22 11:00:21+00",15.5,17.5,,42.8,-267,628,34,1013.93,41.3,0
"2017-03-22 11:05:21+00",16.6,19.6,,42.5,-313,671,34,1014.1,41.2,0
"2017-03-22 11:10:21+00",15.3,17.3,,42.3,-282,616,31,1014.24,41,0
"2017-03-22 11:15:21+00",17.0,22.0,,42.1,-294,696,26,1014.32,40.8,0
"2017-03-22 11:20:21+00",17.6,19.6,,42,-294,721,44,1014.49,40.7,0
"2017-03-22 11:25:21+00",16.3,19.3,,42,-295,663,59,1014.62,40.9,0
"2017-03-22 11:30:21+00",17.9,19.9,,42,-289,736,53,1014.83,41,1.4
"2017-03-22 11:35:21+00",16.7,21.7,,41.9,-281,702,45,1014.9,41.2,6.2
"2017-03-22 11:40:21+00",19.0,23.0,,41.9,-311,775,36,1014.99,41.4,21.1
"2017-03-22 11:45:21+00",20.7,23.7,,41.9,-354,844,40,1015.13,41.6,27.7
"2017-03-22 11:50:21+00",19.3,23.3,,41.8,-291,804,45,1015.29,41.9,37.1
"2017-03-22 11:55:21+00",18.3,22.3,,41.8,-322,759,53,1015.26,42,49.4
"2017-03-22 12:00:21+00",22.1,25.1,,41.7,-356,908,41,1015.37,42.1,61.3
"2017-03-22 12:05:21+00",21.9,26.9,,41.6,-281,923,47,1015.52,42.2,72.3
"2017-03-22 12:10:21+00",25.8,29.8,,41.5,-393,1069,61,1015.52,42.1,82.7
"2017-03-22 12:15:21+00",24.8,28.8,,41.4,-532,955,43,1015.64,42.1,98
"2017-03-22 12:20:21+00",32.9,39.9,,41.1,-678,1309,100,1015.63,41.9,108.1
"2017-03-22 12:25:21+00",28.3,35.3,,41.1,-679,1070,74,1015.7,41.7,122.4
"2017-03-22 12:30:21+00",29.0,35.0,,41.1,-700,1072,63,1015.71,41.7,137
"2017-03-22 12:35:21+00",29.6,35.6,,41.1,-716,1090,61,1015.79,41.6,148
"2017-03-22 12:40:21+00",31.3,34.3,,40.9,-721,1187,64,1015.92,41.8,160.7
"2017-03-22 12:45:21+00",25.5,31.5,,41.1,-726,882,70,1016.03,41.9,173.4
"2017-03-22 12:50:21+00",27.7,31.7,,41.1,-722,1011,65,1016.23,42,183.8
"2017-03-22 12:55:21+00",25.1,30.1,,41,-511,1003,81,1016.31,42.1,195.1
"2017-03-22 13:00:21+00",27.8,29.8,,41,-657,1056,61,1016.33,42.2,205.6
"2017-03-22 13:05:21+00",29.4,33.4,,41,-846,1000,99,1016.31,42.1,216
"2017-03-22 13:10:21+00",34.6,38.6,,40.8,-956,1208,105,1016.42,41.7,226.4
"2017-03-22 13:15:21+00",38.2,41.2,,40.7,-956,1396,75,1016.48,41.6,235.2
"2017-03-22 13:20:21+00",29.2,35.2,,40.7,-788,1032,79,1016.63,41.8,243.6
"2017-03-22 13:25:21+00",34.8,38.8,,40.5,-927,1232,106,1016.58,41.6,252.8
"2017-03-22 13:30:21+00",28.2,32.2,,40.6,-725,1015,80,1016.7,41.7,265.4
"2017-03-22 13:35:21+00",31.8,36.8,,40.8,-858,1126,82,1016.76,42,274.1
"2017-03-22 13:40:21+00",34.4,39.4,,40.6,-969,1177,96,1016.74,41.9,287
"2017-03-22 13:45:21+00",24.8,27.8,,40.9,-625,912,105,1016.89,42,295.6
"2017-03-22 13:50:21+00",30.7,37.7,,40.6,-920,1036,99,1016.94,42.1,302
"2017-03-22 13:55:21+00",29.9,36.9,,40.4,-331,1290,94,1017.17,42.3,341.7
"2017-03-22 14:00:21+00",34.1,38.1,,39.2,-230,1473,48,1017.26,41.4,288.4
"2017-03-22 14:05:21+00",27.8,31.8,,39.2,-226,1199,35,1017.41,41.1,311.9
"2017-03-22 14:10:21+00",29.5,34.5,,39.2,-427,1238,52,1017.59,41.3,318.7
"2017-03-22 14:15:21+00",29.0,37.0,,39.1,-753,1061,105,1017.67,41,342.5
"2017-03-22 14:20:21+00",26.9,30.9,,38.4,-796,905,73,1017.88,40.3,342.7
"2017-03-22 14:25:21+00",35.4,40.4,,38.6,-504,1484,60,1017.95,40.2,346.7
"2017-03-22 14:30:21+00",28.2,35.2,,38.7,-689,1061,92,1018.03,40.3,349.7
"2017-03-22 14:35:21+00",26.5,32.5,,38.9,-639,1011,117,1018.12,40.7,359
"2017-03-22 14:40:21+00",29.8,33.8,,39.2,-753,1086,111,1018.13,41.1,365.6
"2017-03-22 14:45:21+00",33.4,40.4,,39.1,-770,1277,73,1018.18,41.1,374.7
"2017-03-22 14:50:21+00",31.7,40.7,,39.3,-746,1205,95,1018.27,41.2,382.9
"2017-03-22 14:55:21+00",24.3,30.3,,39.6,-556,926,104,1018.57,41,391.2
"2017-03-22 15:00:21+00",32.0,37.0,,38.8,-710,1235,64,1018.66,41.2,399.4
"2017-03-22 15:05:21+00",32.0,36.0,,39.1,-885,1108,137,1018.6,41.1,407.7
"2017-03-22 15:10:21+00",27.5,31.5,,39.2,-832,907,117,1018.62,40.8,414.1
"2017-03-22 15:15:21+00",34.0,39.0,,38.8,-1105,1028,102,1018.71,40.6,421.6
"2017-03-22 15:20:21+00",31.4,35.4,,38.5,-952,1026,111,1018.8,40.3,431.3
"2017-03-22 15:25:21+00",31.1,36.1,,38.7,-997,976,126,1018.99,40.2,438
"2017-03-22 15:30:21+00",34.2,39.2,,38.7,-904,1222,91,1019.2,40.6,443.3
"2017-03-22 15:35:21+00",32.3,34.3,,38.3,-935,1093,71,1019.17,40.1,451.5
"2017-03-22 15:40:21+00",33.3,43.3,,38.3,-1069,1034,115,1019.23,40,456.9
"2017-03-22 15:45:21+00",35.7,38.7,,38.3,-1024,1205,91,1019.41,40.1,464.1
"2017-03-22 15:50:21+00",35.1,39.1,,38.2,-863,1290,72,1019.69,40.3,469.5
"2017-03-22 15:55:21+00",35.6,42.6,,38.3,-835,1344,81,1019.88,40.6,473.6
"2017-03-22 16:00:21+00",31.8,36.8,,38.4,-759,1207,70,1019.89,40.8,480.2
"2017-03-22 16:05:21+00",31.0,34.0,,38.5,-803,1126,79,1019.98,41,483.2
"2017-03-22 16:10:21+00",31.2,35.2,,38.8,-718,1174,68,1020.01,40.9,487
"2017-03-22 16:15:21+00",31.8,36.8,,38.9,-603,1269,79,1020.07,41.4,491
"2017-03-22 16:20:21+00",28.7,32.7,,38.8,-423,1184,61,1020.07,41.5,494.7
"2017-03-22 16:25:21+00",27.6,31.6,,38.8,-655,1052,98,1020.25,41.3,499.9
"2017-03-22 16:30:21+00",29.6,32.6,,38.5,-919,959,93,1020.27,41,502.7
"2017-03-22 16:35:21+00",32.0,37.0,,38.7,-827,1176,90,1020.32,41.1,500.2
"2017-03-22 16:40:21+00",35.7,41.7,,38.3,-1015,1226,100,1020.32,40.8,406.3
"2017-03-22 16:45:21+00",28.1,34.1,,38.5,-871,895,99,1020.33,40.6,511.8
"2017-03-22 16:50:21+00",30.5,37.5,,38.7,-349,1299,45,1020.51,40.8,507.4
"2017-03-22 16:55:21+00",27.5,31.5,,38.3,-294,1183,51,1020.46,41,507.8
"2017-03-22 17:00:21+00",28.7,34.7,,38.5,-775,1025,108,1020.45,41.5,509.2
"2017-03-22 17:05:21+00",33.0,38.0,,38.8,-165,1442,30,1020.47,41.4,511.3
"2017-03-22 17:10:21+00",31.2,41.2,,38.3,-440,1322,46,1020.7,41.2,510
"2017-03-22 17:15:21+00",35.6,40.6,,38.4,-484,1500,52,1020.66,41.1,510.2
"2017-03-22 17:20:21+00",28.7,32.7,,38.4,-486,1155,74,1020.83,40.9,510.9
"2017-03-22 17:25:21+00",33.7,37.7,,38.4,-976,1147,85,1020.78,40.7,511.4
"2017-03-22 17:30:21+00",24.0,28.0,,38.8,-482,953,92,1020.89,41,504.4
"2017-03-22 17:35:21+00",24.0,27.0,,38.2,-777,746,108,1020.91,40.9,502.3
"2017-03-22 17:40:21+00",22.2,27.2,,38.5,-391,917,53,1021.15,40.6,499.6
"2017-03-22 17:45:21+00",26.6,32.6,,38.9,-272,1133,50,1021.15,41.2,497.3
"2017-03-22 17:50:21+00",27.2,30.2,,38.3,-825,893,84,1021.23,41.3,494.4
"2017-03-22 17:55:21+00",25.5,29.5,,38.3,-653,915,61,1021.05,40.7,487.8
"2017-03-22 18:00:21+00",23.9,27.9,,38.8,-360,981,48,1021.06,40.6,482.5
"2017-03-22 18:05:21+00",25.2,32.2,,37.8,-375,1037,31,1021.33,40.9,480.4
"2017-03-22 18:10:21+00",22.8,27.8,,38.5,-176,972,61,1021.23,41,474.1
"2017-03-22 18:15:21+00",26.5,30.5,,38.5,-330,1120,83,1021.3,41.3,471.5
"2017-03-22 18:20:21+00",22.9,26.9,,37.4,-70,1000,28,1021.36,40.7,468.4
"2017-03-22 18:25:21+00",32.9,41.9,,37.9,-678,1299,57,1021.33,40.7,463.5
"2017-03-22 18:30:21+00",31.7,35.7,,37.8,-148,1386,38,1021.37,40.4,456
"2017-03-22 18:35:21+00",23.5,27.5,,37.6,-419,962,43,1021.35,40.5,449
"2017-03-22 18:40:21+00",24.1,30.1,,38.5,-419,981,88,1021.39,41.1,443.8
"2017-03-22 18:45:21+00",28.0,31.0,,37.9,-14,1249,30,1021.49,40.9,439
"2017-03-22 18:50:21+00",20.5,23.5,,37,-363,832,46,1021.53,40.5,431.5
"2017-03-22 18:55:21+00",31.0,35.0,,38,-357,1325,64,1021.42,40.9,424.9
"2017-03-22 19:00:21+00",24.3,27.3,,36.7,-392,1004,44,1021.7,40.4,418.4
"2017-03-22 19:05:21+00",31.7,34.7,,37.1,-203,1386,36,1021.6,40,412.2
"2017-03-22 19:10:21+00",23.4,26.4,,36.6,-263,999,36,1021.65,39.4,405.9
"2017-03-22 19:15:21+00",19.2,26.2,,36.7,-368,764,21,1021.76,39.9,396.4
"2017-03-22 19:20:21+00",26.5,29.5,,37.6,-637,990,84,1021.76,40.6,388.2
"2017-03-22 19:25:21+00",27.9,30.9,,36.9,-695,1017,33,1021.83,39.9,380.2
"2017-03-22 19:30:21+00",24.6,29.6,,37,-310,1026,70,1022,40,376.2
"2017-03-22 19:35:21+00",20.6,23.6,,37.1,-78,906,44,1022.23,39.9,370.1
"2017-03-22 19:40:21+00",22.4,26.4,,37.1,-38,982,29,1022.26,40,362.8
"2017-03-22 19:45:21+00",22.7,25.7,,36.7,-738,704,70,1022.41,39.7,351.4
"2017-03-22 19:50:21+00",24.7,29.7,,37.5,-584,938,97,1022.37,40.1,347.9
"2017-03-22 19:55:21+00",18.8,22.8,,36.9,-308,778,32,1022.5,40.1,333.4
"2017-03-22 20:00:21+00",29.7,35.7,,36.5,-335,1269,46,1022.44,39.6,331.6
"2017-03-22 20:05:21+00",27.1,33.1,,36.4,-327,1147,70,1022.52,39.3,326.5
"2017-03-22 20:10:21+00",30.8,35.8,,36.4,-382,1317,46,1022.67,38.9,317.2
"2017-03-22 20:15:21+00",27.0,31.0,,36.1,-683,992,73,1022.76,39,308.5
"2017-03-22 20:20:21+00",29.0,33.0,,36.2,-585,1154,62,1022.77,39,303
"2017-03-22 20:25:21+00",27.5,33.5,,36,-511,1120,54,1022.86,38.9,294
"2017-03-22 20:30:21+00",27.4,31.4,,36.4,-421,1128,71,1022.86,39.1,286.2
"2017-03-22 20:35:21+00",31.1,35.1,,36.1,-163,1361,45,1022.85,38.6,281.1
"2017-03-22 20:40:21+00",31.5,39.5,,35.9,-427,1328,37,1023.1,38.3,271.5
"2017-03-22 20:45:21+00",31.7,34.7,,35.8,-373,1339,70,1023.25,38.2,262.4
"2017-03-22 20:50:21+00",29.8,33.8,,35.7,-403,1254,51,1023.37,38.2,251.2
"2017-03-22 20:55:21+00",32.6,36.6,,35.7,-544,1343,52,1023.46,38.3,245.5
"2017-03-22 21:00:21+00",21.2,26.2,,35.7,-407,840,62,1023.71,38.3,232.9
"2017-03-22 21:05:21+00",30.9,32.9,,35.5,-539,1256,52,1023.88,38.4,223.2
"2017-03-22 21:10:21+00",22.8,26.8,,35.5,-379,939,52,1023.91,37.9,211.8
"2017-03-22 21:15:21+00",23.6,27.6,,35.6,-429,959,52,1023.95,38,204
"2017-03-22 21:20:21+00",26.9,30.9,,35.5,-690,988,90,1024.01,37.5,195.4
"2017-03-22 21:25:21+00",25.5,28.5,,35.6,-404,1053,41,1024.18,37.5,186.2
"2017-03-22 21:30:21+00",31.0,35.0,,35.6,-881,1073,120,1024.21,37.4,175.2
"2017-03-22 21:35:21+00",37.7,42.7,,35.1,-1029,1330,109,1024.32,36.9,161.3
"2017-03-22 21:40:21+00",27.5,32.5,,35.2,-699,998,80,1024.33,36.8,149.6
"2017-03-22 21:45:21+00",31.6,35.6,,35,-857,1120,65,1024.51,36.6,139.2
"2017-03-22 21:50:21+00",30.5,33.5,,34.9,-613,1197,92,1024.53,36.5,126.8
"2017-03-22 21:55:21+00",30.0,35.0,,34.7,-687,1137,75,1024.67,36.5,113.6
"2017-03-22 22:00:21+00",31.1,36.1,,34.5,-348,1332,43,1024.72,36,105.3
"2017-03-22 22:05:21+00",24.0,28.0,,34.6,-326,1008,44,1024.74,35.9,90.6
"2017-03-22 22:10:21+00",21.8,25.8,,34.8,-468,862,111,1024.85,36.1,79.5
"2017-03-22 22:15:21+00",23.7,26.7,,34.6,-478,950,84,1025.04,36,69.6
"2017-03-22 22:20:21+00",24.8,28.8,,34.5,-296,1048,23,1025.12,35.8,55.1
"2017-03-22 22:25:21+00",25.8,32.8,,34.3,-380,1073,43,1025.26,35.5,46.2
"2017-03-22 22:30:21+00",28.4,35.4,,34.3,-473,1168,67,1025.35,35.3,33.5
"2017-03-22 22:35:21+00",29.8,36.8,,34.2,-803,1058,95,1025.39,35,21.5
"2017-03-22 22:40:21+00",27.5,30.5,,34,-603,1062,77,1025.71,34.7,12.7
"2017-03-22 22:45:21+00",25.8,29.8,,33.9,-595,979,73,1025.86,34.5,2.8
"2017-03-22 22:50:21+00",28.6,36.6,,33.8,-543,1144,55,1026.07,34.2,0
"2017-03-22 22:55:21+00",21.6,25.6,,33.8,-400,875,77,1026.22,34,0
"2017-03-22 23:00:21+00",22.4,26.4,,33.6,-357,924,58,1026.4,33.8,0
"2017-03-22 23:05:21+00",22.4,28.4,,33.4,-396,908,34,1026.51,33.5,0
"2017-03-22 23:10:21+00",14.7,18.7,,33.1,-326,572,44,1026.65,33.1,0
"2017-03-22 23:15:21+00",20.9,23.9,,33,-339,860,51,1026.77,32.8,0
"2017-03-22 23:20:21+00",20.7,22.7,,32.9,-391,837,45,1026.95,32.5,0
"2017-03-22 23:25:21+00",22.2,24.2,,32.8,-325,929,43,1027.06,32.3,0
"2017-03-22 23:30:21+00",16.1,18.1,,32.5,-160,687,40,1027.08,32.1,0
"2017-03-22 23:35:21+00",18.5,21.5,,32.5,-325,753,53,1027.21,31.9,0
"2017-03-22 23:40:21+00",18.9,22.9,,32.5,-307,767,30,1027.37,31.8,0
"2017-03-22 23:45:21+00",16.6,22.6,,32.2,-266,687,28,1027.4,31.6,0
"2017-03-22 23:50:21+00",18.1,20.1,,32.2,-336,726,48,1027.59,31.6,0
"2017-03-22 23:55:21+00",18.3,21.3,,32.2,-412,702,50,1027.78,31.5,0
